Find Starlink 31289

NORAD ID: 59173 Int'l Des: 2024-044 Owner: SPXS Country: US Constellation: starlink operational
LEOCIRCULAR

Live Position

Loading 3D Globe...

About Starlink 31289

Description loading...

Upcoming Passes

Passes for default location (London). Set your location on the main map for personalized predictions.

Altitude History

Loading altitude history...

Two-Line Element Set

1 59173U 24044X 26103.92286885 .00000614 00000-0 31846-4 0 9996
2 59173 43.0037 268.0801 0001461 262.9372 97.1314 15.27574890118982
Epoch: Apr 13, 2026 • Age: 15 hours

Current Status

Altitude 486.5 km
Velocity 7.63 km/s
Sub-Earth Point 40.17°N, 13.49°W
Launch Date Mar 4, 2024
Age 2.1 years
Type internet

Technical Details

Classification Payload
Mass 730.00 kg
Dry Mass 700.00 kg
Total Mass 730.00 kg
Length 0.30 m
Diameter 4.10 m
Span 29.00 m
Shape Box + pan
Manufacturer SPXS
Bus Type Starlink V2M
Phase Status In Orbit
Owner/State SPXS/US

Most Searched